Location: Prairie View Elementary School
(39.8322°N, 99.5698°W)
Time: 19:36:57
(UTC+00:00)

Okean 1-7 - Pass Details

Date: 08 December 2019
Orbit: 591 x 619 km, 82.5° (Epoch: 22 January)

Event Time Altitude Azimuth Distance (km) Brightness Sun altitude
Rises 01:01:42 0° 185° (S) 2,835 6.7 -20.2°
Reaches altitude 10° 01:03:53 10° 185° (S) 1,942 5.8 -20.6°
Maximum altitude 01:08:11 87° 98° (E) 614 2.9 -21.4°
Enters shadow 01:10:03 34° 9° (N) 1,011 3.9 -21.7°
